Weather History for KCHO - October, 2014

Change the Weather History Date:

Friday, October 17, 2014

  Actual Average Record
Temperature  
Mean Temperature 62 °F 56 °F  
Max Temperature 72 °F 67 °F - ()
Min Temperature 51 °F 44 °F - ()
Degree Days  
Heating Degree Days 3 10  
Month to date heating degree days 82 127  
Since 1 July heating degree days 105 185  
Cooling Degree Days 0 0  
Month to date cooling degree days 14 12  
Year to date cooling degree days 1094 1033  
Growing Degree Days 12 (Base 50)    
Moisture  
Dew Point 50 °F    
Average Humidity 69    
Maximum Humidity 89    
Minimum Humidity 49    
Precipitation  
Precipitation 0.00 in 0.09 in - ()
Month to date precipitation 3.65 1.79  
Year to date precipitation 33.01 34.41  
Sea Level Pressure  
Sea Level Pressure 29.76 in    
Wind  
Wind Speed 6 mph (SSW)    
Max Wind Speed 18 mph    
Max Gust Speed 23 mph    
Visibility 10 miles    
Events      
T = Trace of Precipitation, MM = Missing Value Source: NWS Daily Summary

Daily Weather History Graph

Daily Weather History Graph

Search for Another Location

Airport or City:

Trip Planner

Search our weather history database for the weather conditions in past years. The results will help you decide how hot, cold, wet, or windy it might be!

Date:

Astronomy

Oct. 17, 2014 Rise Set
Actual Time 7:24 AM EDT 6:33 PM EDT
Civil Twilight 6:57 AM EDT 6:59 PM EDT
Nautical Twilight 6:27 AM EDT 7:30 PM EDT
Astronomical Twilight 5:56 AM EDT 8:00 PM EDT
Moon 1:32 AM EDT (10/17) 3:14 PM EDT (10/17)
Length of Visible Light 12h 02m
Length of Day
11h 08m
Waning Crescent, 33% of the Moon is Illuminated
Oct 17
Waning Crescent
Oct 23
New
Oct 30
First Quarter
Nov 6
Full
Nov 14
Last Quarter

Hourly Weather History & Observations

Time (EDT) Temp. Dew Point Humidity Pressure Visibility Wind Dir Wind Speed Gust Speed Precip Events Conditions
12:53 AM 57.9 °F 50.0 °F 75% 29.78 in 10.0 mi SSW 3.5 mph - N/A   Mostly Cloudy
1:53 AM 55.9 °F 50.0 °F 80% 29.78 in 10.0 mi Calm Calm - N/A   Mostly Cloudy
2:53 AM 54.0 °F 48.9 °F 83% 29.78 in 10.0 mi South 4.6 mph - N/A   Clear
3:53 AM 55.0 °F 48.0 °F 77% 29.78 in 10.0 mi SSW 3.5 mph - N/A   Clear
4:53 AM 55.9 °F 48.0 °F 75% 29.79 in 10.0 mi SW 4.6 mph - N/A   Clear
5:53 AM 53.1 °F 46.9 °F 80% 29.80 in 10.0 mi South 5.8 mph - N/A   Clear
6:53 AM 55.0 °F 48.0 °F 77% 29.81 in 10.0 mi Calm Calm - N/A   Clear
7:53 AM 52.0 °F 48.0 °F 86% 29.82 in 10.0 mi SSW 5.8 mph - N/A   Clear
8:53 AM 57.0 °F 51.1 °F 81% 29.84 in 10.0 mi SSW 5.8 mph - N/A   Clear
9:53 AM 62.1 °F 52.0 °F 70% 29.83 in 10.0 mi South 5.8 mph - N/A   Clear
10:53 AM 64.9 °F 51.1 °F 61% 29.83 in 10.0 mi South 6.9 mph - N/A   Clear
11:53 AM 68.0 °F 48.9 °F 50% 29.82 in 10.0 mi WSW 8.1 mph - N/A   Clear
12:53 PM 69.1 °F 50.0 °F 51% 29.80 in 10.0 mi SW 4.6 mph - N/A   Clear
1:53 PM 70.0 °F 50.0 °F 49% 29.76 in 10.0 mi SSW 8.1 mph 16.1 mph N/A   Partly Cloudy
2:53 PM 72.0 °F 51.1 °F 48% 29.74 in 10.0 mi South 11.5 mph - N/A   Clear
3:53 PM 72.0 °F 51.1 °F 48% 29.72 in 10.0 mi South 13.8 mph 18.4 mph N/A   Clear
4:53 PM 70.0 °F 51.1 °F 51% 29.71 in 10.0 mi SSW 13.8 mph - N/A   Clear
5:53 PM 66.0 °F 51.1 °F 59% 29.71 in 10.0 mi SSW 9.2 mph - N/A   Clear
6:53 PM 64.9 °F 51.1 °F 61% 29.71 in 10.0 mi SSW 10.4 mph - N/A   Clear
7:53 PM 62.1 °F 52.0 °F 70% 29.72 in 10.0 mi SSW 9.2 mph - N/A   Clear
8:53 PM 60.1 °F 52.0 °F 75% 29.71 in 10.0 mi SSW 6.9 mph - N/A   Clear
9:53 PM 57.9 °F 52.0 °F 81% 29.71 in 10.0 mi Calm Calm - N/A   Clear
10:53 PM 57.9 °F 52.0 °F 81% 29.70 in 10.0 mi SSW 3.5 mph - N/A   Clear
11:53 PM 57.9 °F 52.0 °F 81% 29.70 in 10.0 mi SSW 4.6 mph - N/A   Clear